STARLINK-35520, 66133

Orbit data source: Space-Track

STARLINK-35520, 66133 is a payload satellite owned by SpaceX/Seattle (US) in LEO that was launched on Wed, 22 Oct 2025 UTC via an FALCON 9 launch vehicle from the Air Force Western Test Range (AFWTR). Payload-class satellites include a variety of spacecraft equipped with specific instruments for various scientific and technological missions. These include communications satellites like Starlink; space stations such as the ISS; scientific satellites like the Hubble; Earth observation satellites from companies like Planet Labs, Umbra, and HawkEye 360; GPS; miniature CubeSats for education and research; and military/defense satellites.

Loading next visibility...
Identifier
66133, 2025-237V
Orbit
LEO
Country
Flag of USUS
Related business
Manufacturer
SpaceX/Seattle
Mission
Operational Commercial Communications
Bus & Motor
STARLINK V2MO, Unknown motor
Mass
575 kg wet, ~530 kg dry
Launch date (UTC)
2025-10-22 (2 months ago)
Launch vehicle
FALCON 9
Launch site
Air Force Western Test Range (AFWTR)
Object type
Payload
Rocket body
Debris
Shape & HBR
Box + 2 Pan, 17.7 m
Radar Cross Section
36.964 m²

Expand to show TLE details & history
Last TLE update: 22 hours ago

TLE from 22 hours ago
0 STARLINK-35520
1 66133U 25237V   25344.72909070  .00071980  00000-0  17902-2 0  9996
2 66133  53.1608  96.8523 0000586 288.1742  71.9199 15.39660159  8939
Epoch: 2025-12-10T17:29Z
TLE epoch observation values (Epoch: 2025-12-10T17:29:53.436Z)
Latitude
-0.00003°
Longitude
114.68439°
Altitude
447.893 km
Speed
7.645 km/s
True Right ascension
06h 27m 24s
True Declination
0° 00' 00"
Sunlit
Object was in full shadow at epoch
Visualization orbit readout
Latitude
Unknown
Longitude
Unknown
Altitude
Unknown
Speed
Unknown
Apparent Right ascension
Unknown
Apparent Declination
Unknown
Sunlit
N/A
Visualization observer readout
Local Sidereal Time
13:35:56
Azimuth
Unknown
Elevation
Unknown
Doppler factor
Unknown
Orbital elements
Apogee altitude
447.771 km
Perigee altitude
446.971 km
Semi-major axis
6,825.508 km
Eccentricity
0.00006
Inclination
53.1608°
RAAN
96.8523°
Arg. of periapsis
288.1742°
True anomaly
71.92628°
Mean anomaly
71.9199°
Eccentric anomaly
71.92309°
Mean motion
3.84894 °/min
Orbital period
93.53 mins
BSTAR
0.0017902
Loading maneuver chart data...
Computing Atmospheric mass density...
Loading historical data...
Loading historical data...
Loading historical data...
Loading historical data...
Loading historical data...
Loading historical data...
Loading historical data...

Documentation

Showing up to 5 results
|